TUI28S LZIB-LOWI

Flight info

Callsign TUI28S
Flight time 0h 46m
Altitude 32000
Route TOVKA DCT NANIT NANIT2A
Aircraft B38M/M-SDE1FGHILORVWXY/HB1

Departure

Time 2026-05-04 17:39
Airport M. R. Štefánik Airport (LZIB)

Arrival

Time 2026-05-04 18:26
Airport Innsbruck Airport (LOWI)
Time Latitude Longitude Altitude Speed Heading
2026-05-04 17:21 48.17032 17.20260 428 ft 0 kts 314°
2026-05-04 17:32 48.17016 17.20280 428 ft 3 kts 332°
2026-05-04 17:33 48.16957 17.20270 430 ft 1 kts 44°
2026-05-04 17:33 48.16957 17.20269 430 ft 2 kts 44°
2026-05-04 17:35 48.16982 17.20306 424 ft 12 kts 45°
2026-05-04 17:36 48.17053 17.20414 423 ft 16 kts 46°
2026-05-04 17:36 48.17132 17.20531 424 ft 12 kts 40°
2026-05-04 17:36 48.17214 17.20566 433 ft 14 kts 338°
2026-05-04 17:36 48.17286 17.20461 428 ft 16 kts 313°
2026-05-04 17:37 48.17366 17.20343 430 ft 17 kts 318°
2026-05-04 17:37 48.17447 17.20304 433 ft 10 kts
2026-05-04 17:37 48.17517 17.20345 418 ft 13 kts 37°
2026-05-04 17:37 48.17549 17.20413 432 ft 6 kts 90°
2026-05-04 17:38 48.17536 17.20450 433 ft 0 kts 130°
2026-05-04 17:39 48.17363 17.20720 433 ft 79 kts 134°
2026-05-04 17:39 48.16784 17.21616 425 ft 157 kts 134°
2026-05-04 17:39 48.15943 17.22878 1124 ft 177 kts 137°
2026-05-04 17:40 48.15125 17.24138 2374 ft 166 kts 139°
2026-05-04 17:40 48.14311 17.25424 3171 ft 178 kts 139°
2026-05-04 17:40 48.13400 17.26857 3601 ft 198 kts 139°
2026-05-04 17:40 48.12432 17.28378 3790 ft 206 kts 139°
2026-05-04 17:41 48.11449 17.29953 3908 ft 209 kts 133°
2026-05-04 17:41 48.10889 17.31984 3965 ft 219 kts 99°
2026-05-04 17:41 48.11179 17.34259 4043 ft 232 kts 66°
2026-05-04 17:41 48.12232 17.36136 4176 ft 240 kts 45°
2026-05-04 17:42 48.13588 17.37713 4258 ft 258 kts 25°
2026-05-04 17:42 48.15345 17.38143 4299 ft 267 kts 349°
2026-05-04 17:42 48.17111 17.37130 4407 ft 275 kts 324°
2026-05-04 17:42 48.18743 17.35620 4492 ft 282 kts 325°
2026-05-04 17:43 48.20423 17.34000 4617 ft 283 kts 315°
2026-05-04 17:43 48.21490 17.31683 4705 ft 271 kts 284°
2026-05-04 17:43 48.21897 17.28949 4860 ft 270 kts 276°
2026-05-04 17:43 48.22267 17.26183 4955 ft 271 kts 277°
2026-05-04 17:44 48.22652 17.23407 5029 ft 273 kts 278°
2026-05-04 17:44 48.23042 17.20645 5997 ft 270 kts 279°
2026-05-04 17:44 48.23434 17.17872 7092 ft 274 kts 279°
2026-05-04 17:44 48.23834 17.15061 8154 ft 277 kts 279°
2026-05-04 17:45 48.24239 17.12220 9241 ft 280 kts 279°
2026-05-04 17:45 48.24650 17.09334 10215 ft 286 kts 279°
2026-05-04 17:45 48.25078 17.06331 10879 ft 303 kts 279°
2026-05-04 17:45 48.25532 17.03140 11369 ft 324 kts 279°
2026-05-04 17:46 48.26016 16.99734 11784 ft 345 kts 279°
2026-05-04 17:46 48.26525 16.96128 12268 ft 360 kts 279°
2026-05-04 17:46 48.26759 16.92363 12912 ft 364 kts 262°
2026-05-04 17:46 48.26261 16.88654 13799 ft 365 kts 255°
2026-05-04 17:47 48.25671 16.84928 14438 ft 371 kts 255°
2026-05-04 17:47 48.25056 16.81158 15187 ft 374 kts 254°
2026-05-04 17:47 48.24420 16.77349 15888 ft 378 kts 254°
2026-05-04 17:47 48.23771 16.73508 16583 ft 382 kts 254°
2026-05-04 17:48 48.23109 16.69625 17252 ft 387 kts 254°
2026-05-04 17:48 48.22439 16.65700 17945 ft 390 kts 254°
2026-05-04 17:48 48.21759 16.61736 18569 ft 394 kts 254°
2026-05-04 17:48 48.21073 16.57744 19136 ft 397 kts 255°
2026-05-04 17:49 48.20380 16.53715 19694 ft 401 kts 255°
2026-05-04 17:49 48.19677 16.49649 20300 ft 404 kts 255°
2026-05-04 17:49 48.18974 16.45585 20895 ft 406 kts 255°
2026-05-04 17:49 48.18260 16.41469 21412 ft 411 kts 255°
2026-05-04 17:50 48.17538 16.37320 21935 ft 414 kts 255°
2026-05-04 17:50 48.16808 16.33126 22509 ft 417 kts 255°
2026-05-04 17:50 48.16072 16.28912 23081 ft 419 kts 255°
2026-05-04 17:50 48.15329 16.24671 23525 ft 424 kts 255°
2026-05-04 17:51 48.14574 16.20370 23836 ft 430 kts 256°
2026-05-04 17:51 48.13812 16.16041 24387 ft 430 kts 256°
2026-05-04 17:51 48.13304 16.13163 24676 ft 432 kts 256°
2026-05-04 17:51 48.12537 16.08817 25057 ft 436 kts 256°
2026-05-04 17:52 48.11756 16.04412 25447 ft 440 kts 256°
2026-05-04 17:52 48.10967 15.99963 25922 ft 441 kts 256°
2026-05-04 17:52 48.10181 15.95549 26365 ft 443 kts 256°
2026-05-04 17:52 48.09381 15.91066 26671 ft 448 kts 256°
2026-05-04 17:53 48.08574 15.86553 27095 ft 450 kts 256°
2026-05-04 17:53 48.07762 15.82020 27513 ft 452 kts 256°
2026-05-04 17:53 48.06951 15.77511 27902 ft 455 kts 256°
2026-05-04 17:53 48.06120 15.72900 28209 ft 459 kts 256°
2026-05-04 17:54 48.05286 15.68284 28657 ft 460 kts 256°
2026-05-04 17:54 48.04448 15.63657 29048 ft 462 kts 256°
2026-05-04 17:54 48.03608 15.59035 29511 ft 462 kts 256°
2026-05-04 17:54 48.02764 15.54397 29890 ft 463 kts 256°
2026-05-04 17:55 48.01080 15.45179 29925 ft 457 kts 255°
2026-05-04 17:55 47.99412 15.36098 29928 ft 452 kts 255°
2026-05-04 17:56 47.97750 15.27095 29928 ft 455 kts 255°
2026-05-04 17:56 47.96067 15.18020 29911 ft 451 kts 255°
2026-05-04 17:57 47.94381 15.08976 29919 ft 454 kts 255°
2026-05-04 17:57 47.92695 14.99975 29903 ft 451 kts 255°
2026-05-04 17:58 47.90988 14.90901 29913 ft 455 kts 255°
2026-05-04 17:58 47.89272 14.81830 29897 ft 455 kts 254°
2026-05-04 17:59 47.87548 14.72753 29903 ft 455 kts 254°
2026-05-04 18:00 47.84955 14.59188 29901 ft 455 kts 254°
2026-05-04 18:00 47.83214 14.50136 29905 ft 455 kts 254°
2026-05-04 18:01 47.81467 14.41097 29904 ft 455 kts 254°
2026-05-04 18:01 47.79718 14.32085 29905 ft 455 kts 253°
2026-05-04 18:02 47.77071 14.18528 29899 ft 455 kts 253°
2026-05-04 18:02 47.75301 14.09518 29911 ft 454 kts 253°
2026-05-04 18:03 47.73521 14.00500 29920 ft 454 kts 253°
2026-05-04 18:03 47.71746 13.91547 29896 ft 452 kts 253°
2026-05-04 18:04 47.69975 13.82652 29912 ft 452 kts 253°
2026-05-04 18:05 47.67288 13.69241 29924 ft 452 kts 252°
2026-05-04 18:05 47.65494 13.60331 29927 ft 452 kts 252°
2026-05-04 18:06 47.62779 13.46935 29489 ft 452 kts 252°
2026-05-04 18:06 47.61871 13.42472 29225 ft 453 kts 252°
2026-05-04 18:06 47.60960 13.38004 28977 ft 454 kts 252°
2026-05-04 18:07 47.60045 13.33527 28702 ft 454 kts 252°
2026-05-04 18:07 47.59126 13.29043 28428 ft 455 kts 252°
2026-05-04 18:07 47.58209 13.24578 28190 ft 456 kts 252°
2026-05-04 18:07 47.57286 13.20094 27910 ft 456 kts 252°
2026-05-04 18:08 47.56361 13.15608 27665 ft 457 kts 252°
2026-05-04 18:08 47.55430 13.11103 27404 ft 457 kts 252°
2026-05-04 18:08 47.54494 13.06587 27144 ft 458 kts 252°
2026-05-04 18:08 47.53565 13.02112 26353 ft 456 kts 252°
2026-05-04 18:09 47.51693 12.93125 24052 ft 452 kts 253°
2026-05-04 18:09 47.49890 12.84516 22474 ft 428 kts 252°
2026-05-04 18:10 47.49011 12.80329 21765 ft 427 kts 252°
2026-05-04 18:10 47.48126 12.76117 21060 ft 431 kts 252°
2026-05-04 18:10 47.47237 12.71892 20377 ft 430 kts 252°
2026-05-04 18:10 47.46353 12.67702 19691 ft 426 kts 252°
2026-05-04 18:11 47.45473 12.63538 19004 ft 424 kts 251°
2026-05-04 18:11 47.44597 12.59398 18325 ft 421 kts 251°
2026-05-04 18:11 47.43721 12.55274 17629 ft 419 kts 251°
2026-05-04 18:11 47.42860 12.51218 17020 ft 413 kts 251°
2026-05-04 18:12 47.42005 12.47203 16061 ft 406 kts 251°
2026-05-04 18:12 47.41158 12.43236 15273 ft 402 kts 251°
2026-05-04 18:12 47.40349 12.39448 15194 ft 370 kts 251°
2026-05-04 18:12 47.39669 12.35913 14881 ft 352 kts 259°
2026-05-04 18:13 47.39658 12.32368 14537 ft 339 kts 274°
2026-05-04 18:13 47.39922 12.29008 14332 ft 320 kts 274°
2026-05-04 18:13 47.40451 12.22845 13896 ft 291 kts 275°
2026-05-04 18:14 47.40714 12.19932 13619 ft 284 kts 274°
2026-05-04 18:14 47.40980 12.17014 13350 ft 285 kts 274°
2026-05-04 18:14 47.41243 12.14160 13122 ft 283 kts 275°
2026-05-04 18:15 47.41769 12.08440 12633 ft 280 kts 274°
2026-05-04 18:15 47.42272 12.02964 12177 ft 257 kts 274°
2026-05-04 18:15 47.42505 12.00427 12037 ft 241 kts 274°
2026-05-04 18:16 47.42723 11.98075 11898 ft 222 kts 274°
2026-05-04 18:16 47.42771 11.95903 11616 ft 204 kts 254°
2026-05-04 18:16 47.42179 11.94100 11394 ft 194 kts 228°
2026-05-04 18:17 47.40058 11.91656 11139 ft 195 kts 214°
2026-05-04 18:17 47.38938 11.90553 10979 ft 193 kts 213°
2026-05-04 18:17 47.36688 11.88446 10644 ft 192 kts 211°
2026-05-04 18:18 47.35545 11.87411 10409 ft 193 kts 211°
2026-05-04 18:18 47.34395 11.86372 10171 ft 193 kts 212°
2026-05-04 18:18 47.33535 11.84907 9955 ft 194 kts 247°
2026-05-04 18:18 47.33269 11.82952 9834 ft 197 kts 253°
2026-05-04 18:19 47.32556 11.79062 9267 ft 198 kts 250°
2026-05-04 18:19 47.32209 11.77108 8878 ft 198 kts 255°
2026-05-04 18:19 47.31924 11.75122 8549 ft 197 kts 253°
2026-05-04 18:20 47.31603 11.73089 8104 ft 206 kts 253°
2026-05-04 18:20 47.31284 11.71044 7752 ft 203 kts 254°
2026-05-04 18:20 47.30984 11.69046 7418 ft 197 kts 253°
2026-05-04 18:20 47.30705 11.67152 7084 ft 180 kts 255°
2026-05-04 18:21 47.30457 11.65461 6885 ft 160 kts 253°
2026-05-04 18:21 47.30220 11.63858 6653 ft 159 kts 254°
2026-05-04 18:21 47.29980 11.62241 6389 ft 163 kts 252°
2026-05-04 18:21 47.29744 11.60611 6122 ft 163 kts 254°
2026-05-04 18:22 47.29510 11.58999 5830 ft 159 kts 252°
2026-05-04 18:22 47.29274 11.57397 5595 ft 160 kts 253°
2026-05-04 18:22 47.29037 11.55792 5332 ft 160 kts 255°
2026-05-04 18:22 47.28806 11.54205 5051 ft 157 kts 254°
2026-05-04 18:23 47.28574 11.52627 4782 ft 159 kts 254°
2026-05-04 18:23 47.28343 11.51047 4518 ft 159 kts 254°
2026-05-04 18:23 47.28107 11.49451 4255 ft 159 kts 255°
2026-05-04 18:23 47.27878 11.47865 3981 ft 157 kts 256°
2026-05-04 18:24 47.27650 11.46298 3730 ft 157 kts 254°
2026-05-04 18:24 47.27421 11.44748 3481 ft 154 kts 255°
2026-05-04 18:24 47.27194 11.43208 3213 ft 153 kts 256°
2026-05-04 18:24 47.26957 11.41680 2918 ft 153 kts 253°
2026-05-04 18:25 47.26695 11.40176 2578 ft 151 kts 253°
2026-05-04 18:25 47.26480 11.38653 2374 ft 152 kts 255°
2026-05-04 18:25 47.26310 11.37105 2161 ft 155 kts 258°
2026-05-04 18:25 47.26143 11.35548 1919 ft 151 kts 257°
2026-05-04 18:26 47.26016 11.34364 1906 ft 71 kts 262°
2026-05-04 18:26 47.25967 11.33889 1900 ft 36 kts 262°
2026-05-04 18:26 47.25914 11.33711 1903 ft 13 kts 172°
2026-05-04 18:26 47.25846 11.33802 1901 ft 14 kts 126°
2026-05-04 18:27 47.25821 11.33854 1898 ft 0 kts 126°
2026-05-04 18:27 47.25814 11.33869 1904 ft 5 kts 126°
2026-05-04 18:27 47.25774 11.33987 1901 ft 20 kts 101°
2026-05-04 18:27 47.25788 11.34214 1903 ft 24 kts 80°
2026-05-04 18:28 47.25816 11.34463 1906 ft 25 kts 81°
2026-05-04 18:28 47.25841 11.34706 1906 ft 19 kts 82°
2026-05-04 18:28 47.25849 11.34837 1906 ft 10 kts 105°
2026-05-04 18:28 47.25803 11.34873 1894 ft 0 kts 173°